When you browse on this site, cookies collect data to enhance your experience and personalize the content and advertising you see.
Visit our Privacy Policy to learn more. By continuing to use the site, you agree to this use of cookies and data.
  • In France
  • List of Countries
  • For 7 days
  • Water Temperature
  • Satellite Maps
  • Weather Map
  • Weather Widgets
  • user-avatar
    Login

    Hourly Weather Salzburg

    Today, 18 June, Tuesday

    Time Temperature Precipitation Wind Pressure Humidity
    00:00 +10°C° 0 mm 1 mps 628 mmHg 93%
    01:00 +8°C° 0 mm 2 mps 628 mmHg 92%
    02:00 +8°C° 0 mm 2 mps 628 mmHg 92%
    03:00 +8°C° 0 mm 2 mps 627 mmHg 92%
    04:00 +8°C° 0 mm 1 mps 627 mmHg 92%
    05:00 +10°C° 0 mm 1 mps 628 mmHg 88%
    06:00 +12°C° 0 mm 1 mps 629 mmHg 84%
    07:00 +13°C° 0 mm 0 mps 630 mmHg 80%
    08:00 +15°C° 0.1 mm 0 mps 630 mmHg 71%
    09:00 +19°C° 0.1 mm 1 mps 631 mmHg 62%
    10:00 +21°C° 0.1 mm 1 mps 631 mmHg 52%
    11:00 +22°C° 0.1 mm 1 mps 631 mmHg 47%
    12:00 +23°C° 0.1 mm 1 mps 632 mmHg 42%
    13:00 +24°C° 0.1 mm 1 mps 632 mmHg 38%
    14:00 +23°C° 0.2 mm 1 mps 631 mmHg 43%
    15:00 +21°C° 0.2 mm 2 mps 631 mmHg 48%
    16:00 +20°C° 0.2 mm 2 mps 630 mmHg 54%
    17:00 +20°C° 0.4 mm 1 mps 629 mmHg 65%
    18:00 +18°C° 0.4 mm 1 mps 629 mmHg 75%
    19:00 +15°C° 0.4 mm 0 mps 628 mmHg 86%
    20:00 +14°C° 0.1 mm 1 mps 628 mmHg 87%
    21:00 +12°C° 0.1 mm 1 mps 628 mmHg 88%
    22:00 +11°C° 0.1 mm 1 mps 627 mmHg 89%
    23:00 +11°C° 0 mm 1 mps 627 mmHg 89%

    Tomorrow, 19 June, Wednesday

    Time Temperature Precipitation Wind Pressure Humidity
    00:00 +10°C° 0 mm 1 mps 627 mmHg 90%
    01:00 +10°C° 0 mm 1 mps 627 mmHg 90%
    02:00 +10°C° 0 mm 1 mps 626 mmHg 90%
    03:00 +10°C° 0 mm 1 mps 626 mmHg 90%
    04:00 +10°C° 0 mm 1 mps 626 mmHg 90%
    05:00 +12°C° 0 mm 1 mps 627 mmHg 88%
    06:00 +13°C° 0 mm 1 mps 627 mmHg 87%
    07:00 +14°C° 0 mm 1 mps 627 mmHg 85%
    08:00 +16°C° 0.6 mm 1 mps 628 mmHg 80%
    09:00 +18°C° 0.6 mm 1 mps 628 mmHg 76%
    10:00 +19°C° 0.6 mm 1 mps 628 mmHg 71%
    11:00 +20°C° 0.5 mm 1 mps 628 mmHg 68%
    12:00 +18°C° 0.5 mm 0 mps 628 mmHg 64%
    13:00 +18°C° 0.5 mm 0 mps 628 mmHg 61%
    14:00 +20°C° 0.4 mm 1 mps 628 mmHg 65%
    15:00 +19°C° 0.4 mm 1 mps 628 mmHg 70%
    16:00 +18°C° 0.4 mm 1 mps 627 mmHg 75%
    17:00 +16°C° 0.6 mm 1 mps 627 mmHg 78%
    18:00 +15°C° 0.6 mm 1 mps 627 mmHg 82%
    19:00 +14°C° 0.6 mm 1 mps 627 mmHg 85%
    20:00 +13°C° 0 mm 1 mps 626 mmHg 84%
    21:00 +12°C° 0 mm 1 mps 626 mmHg 84%
    22:00 +11°C° 0 mm 1 mps 626 mmHg 83%
    23:00 +10°C° 0 mm 1 mps 626 mmHg 82%

    Day after tomorrow, 20 June, Thursday

    Time Temperature Precipitation Wind Pressure Humidity
    00:00 +10°C° 0 mm 1 mps 626 mmHg 81%
    01:00 +10°C° 0 mm 1 mps 625 mmHg 80%
    02:00 +10°C° 0 mm 1 mps 625 mmHg 79%
    03:00 +10°C° 0 mm 1 mps 625 mmHg 78%
    04:00 +9°C° 0 mm 1 mps 625 mmHg 77%
    05:00 +11°C° 0 mm 1 mps 626 mmHg 74%
    06:00 +13°C° 0 mm 1 mps 627 mmHg 71%
    07:00 +14°C° 0 mm 0 mps 628 mmHg 67%
    08:00 +16°C° 0 mm 0 mps 628 mmHg 60%
    09:00 +20°C° 0 mm 1 mps 629 mmHg 52%
    10:00 +23°C° 0 mm 1 mps 629 mmHg 44%
    11:00 +23°C° 0 mm 1 mps 629 mmHg 41%
    12:00 +24°C° 0 mm 1 mps 629 mmHg 38%
    13:00 +25°C° 0 mm 1 mps 629 mmHg 35%
    14:00 +23°C° 0.4 mm 1 mps 629 mmHg 46%
    15:00 +22°C° 0.4 mm 1 mps 628 mmHg 57%
    16:00 +19°C° 0.4 mm 2 mps 627 mmHg 68%
    17:00 +17°C° 2.7 mm 2 mps 627 mmHg 77%
    18:00 +15°C° 2.7 mm 2 mps 626 mmHg 86%
    19:00 +13°C° 2.7 mm 2 mps 626 mmHg 95%
    20:00 +12°C° 1.1 mm 2 mps 626 mmHg 96%
    21:00 +12°C° 1.1 mm 1 mps 626 mmHg 97%
    22:00 +10°C° 1.1 mm 0 mps 627 mmHg 99%
    23:00 +9°C° 0 mm 0 mps 626 mmHg 98%

    21 June, Friday

    Time Temperature Precipitation Wind Pressure Humidity
    00:00 +9°C° 0 mm 0 mps 626 mmHg 98%
    01:00 +9°C° 0 mm 0 mps 626 mmHg 97%
    02:00 +8°C° 0 mm 0 mps 626 mmHg 97%
    03:00 +8°C° 0 mm 0 mps 626 mmHg 96%
    04:00 +8°C° 0 mm 0 mps 626 mmHg 96%
    05:00 +9°C° 0 mm 0 mps 626 mmHg 94%
    06:00 +10°C° 0 mm 0 mps 627 mmHg 92%
    07:00 +11°C° 0 mm 0 mps 628 mmHg 90%
    08:00 +12°C° 0.2 mm 0 mps 628 mmHg 88%
    09:00 +12°C° 0.2 mm 0 mps 628 mmHg 87%
    10:00 +13°C° 0.2 mm 0 mps 628 mmHg 85%
    11:00 +15°C° 0.5 mm 1 mps 628 mmHg 82%
    12:00 +15°C° 0.5 mm 1 mps 629 mmHg 79%
    13:00 +16°C° 0.5 mm 2 mps 629 mmHg 77%
    14:00 +16°C° 1 mm 2 mps 628 mmHg 80%
    15:00 +15°C° 1 mm 2 mps 628 mmHg 84%
    16:00 +15°C° 1 mm 1 mps 628 mmHg 88%
    17:00 +14°C° 0.7 mm 1 mps 628 mmHg 89%
    18:00 +14°C° 0.7 mm 1 mps 628 mmHg 91%
    19:00 +13°C° 0.7 mm 1 mps 628 mmHg 93%
    20:00 +12°C° 1.1 mm 1 mps 628 mmHg 94%
    21:00 +12°C° 1.1 mm 1 mps 628 mmHg 94%
    22:00 +11°C° 1.1 mm 1 mps 628 mmHg 95%
    23:00 +10°C° 0.2 mm 0 mps 628 mmHg 95%

    22 June, Saturday

    Time Temperature Precipitation Wind Pressure Humidity
    00:00 +10°C° 0.2 mm 0 mps 628 mmHg 95%
    01:00 +9°C° 0.2 mm 0 mps 628 mmHg 95%
    02:00 +9°C° 0 mm 0 mps 628 mmHg 95%
    03:00 +9°C° 0 mm 0 mps 627 mmHg 95%
    04:00 +9°C° 0 mm 0 mps 627 mmHg 95%
    05:00 +9°C° 0 mm 0 mps 628 mmHg 93%
    06:00 +10°C° 0 mm 0 mps 628 mmHg 92%
    07:00 +11°C° 0 mm 0 mps 628 mmHg 91%
    08:00 +12°C° 0.3 mm 0 mps 629 mmHg 87%
    09:00 +15°C° 0.3 mm 1 mps 629 mmHg 82%
    10:00 +16°C° 0.3 mm 1 mps 629 mmHg 77%
    11:00 +16°C° 1.1 mm 1 mps 629 mmHg 78%
    12:00 +18°C° 1.1 mm 1 mps 629 mmHg 80%
    13:00 +18°C° 1.1 mm 1 mps 629 mmHg 81%
    14:00 +16°C° 1.2 mm 1 mps 629 mmHg 83%
    15:00 +16°C° 1.2 mm 1 mps 628 mmHg 85%
    16:00 +15°C° 1.2 mm 1 mps 628 mmHg 87%
    17:00 +14°C° 2.1 mm 1 mps 628 mmHg 90%
    18:00 +13°C° 2.1 mm 1 mps 628 mmHg 93%
    19:00 +12°C° 2.1 mm 1 mps 627 mmHg 96%
    20:00 +12°C° 0.6 mm 1 mps 627 mmHg 96%
    21:00 +11°C° 0.6 mm 1 mps 628 mmHg 96%
    22:00 +9°C° 0.6 mm 0 mps 628 mmHg 95%
    23:00 +9°C° 0.2 mm 0 mps 628 mmHg 96%

    23 June, Sunday

    Time Temperature Precipitation Wind Pressure Humidity
    00:00 +10°C° 0.2 mm 1 mps 628 mmHg 96%
    01:00 +10°C° 0.2 mm 1 mps 628 mmHg 97%
    02:00 +10°C° 0 mm 1 mps 628 mmHg 96%
    03:00 +9°C° 0 mm 1 mps 628 mmHg 96%
    04:00 +8°C° 0 mm 1 mps 627 mmHg 95%
    05:00 +9°C° 0 mm 0 mps 628 mmHg 92%
    06:00 +10°C° 0 mm 0 mps 629 mmHg 90%
    07:00 +11°C° 0 mm 0 mps 630 mmHg 87%
    08:00 +14°C° 0 mm 0 mps 630 mmHg 73%
    09:00 +17°C° 0 mm 0 mps 631 mmHg 59%
    10:00 +21°C° 0 mm 1 mps 632 mmHg 45%
    11:00 +22°C° 0 mm 1 mps 632 mmHg 43%
    12:00 +22°C° 0 mm 1 mps 632 mmHg 42%
    13:00 +21°C° 0 mm 2 mps 632 mmHg 40%
    14:00 +21°C° 0 mm 2 mps 632 mmHg 44%
    15:00 +21°C° 0 mm 2 mps 632 mmHg 47%
    16:00 +20°C° 0 mm 2 mps 632 mmHg 51%
    17:00 +18°C° 0.1 mm 2 mps 631 mmHg 62%
    18:00 +18°C° 0.1 mm 1 mps 631 mmHg 73%
    19:00 +15°C° 0.1 mm 1 mps 631 mmHg 84%
    20:00 +14°C° 0 mm 1 mps 631 mmHg 86%
    21:00 +12°C° 0 mm 1 mps 631 mmHg 88%
    22:00 +11°C° 0 mm 1 mps 631 mmHg 90%
    23:00 +11°C° 0 mm 1 mps 631 mmHg 90%
    Show more